Simultaneous Nadir Overpasses (SNOs) Predictions

Prediction of SNOs between NOAA-19 and TERRA Satellite Orbit:

Table of predicted SNOs for the next 14.0 days since TLE Epoch: 12/9/2023
Index Date (NOAA-19) Time (NOAA-19) Lat,Lon (NOAA-19) SZA (NOAA-19 ) Date (TERRA) Time (TERRA) Lat,Lon (TERRA) SZA (TERRA ) Distance(km) Time Diff (sec)
1 12/10/2023 19:45:44 80.58, -88.98 104.61 12/10/2023 19:46:42 80.60, -88.83 104.65 3.35 58
2 12/10/2023 20:36:40 -80.62, 79.05 75.30 12/10/2023 20:36:03 -80.62, 79.05 75.31 0.13 37
3 12/12/2023 23:35:59 -80.58, 33.40 75.25 12/12/2023 23:36:31 -80.57, 33.42 75.25 0.69 32
4 12/13/2023 00:26:56 80.62,-158.39 104.87 12/13/2023 00:25:51 80.63,-158.34 104.86 1.08 65
5 12/15/2023 03:26:14 80.58, 156.06 104.89 12/15/2023 03:26:19 80.57, 155.95 104.87 2.47 5
6 12/17/2023 06:25:41 80.37, 107.41 104.51 12/17/2023 06:26:54 80.27, 108.01 104.48 15.78 73
7 12/17/2023 07:16:29 -80.59, -81.23 75.00 12/17/2023 07:16:06 -80.59, -81.33 75.02 1.86 23
8 12/19/2023 10:15:48 -80.55,-126.99 75.07 12/19/2023 10:16:33 -80.55,-126.87 75.05 2.27 45
9 12/19/2023 11:06:43 80.59, 41.27 105.05 12/19/2023 11:05:53 80.61, 41.35 105.05 1.78 50



Historial Predications of SNOs between NOAA-19 and TERRA
